SL-16 DEB, 22600

Orbit data source: Space-Track

SL-16 DEB, 22600 is space debris in LEO originally from a launch on Fri, 26 Mar 1993 UTC launched from the Tyuratam Missile And Space Complex (TTMTR). Debris objects in space refer to the collection of defunct objects orbiting the Earth. Examples of debris include non-operational satellites, rocket bodies, and fragments generated from explosions, collisions, or faulty payload assembly.

Loading next visibility...
Identifier
22600, 1993-016J
Orbit
LEO
Country
Flag of CISCIS
Related business
Manufacturer
Unknown
Mission
Spacecraft
Bus & Motor
Unknown
Mass
Unknown
Launch date (UTC)
1993-03-26 (33 years ago)
Launch vehicle
Unknown
Launch site
Tyuratam Missile And Space Complex (TTMTR)
Object type
Payload
Rocket body
Debris
Shape & HBR
Unknown shape, 0.3 m
Radar Cross Section
Medium (>0.1 m² and <1 m²)

Expand to show TLE details & history
Last TLE update: 7 hours ago

TLE from 7 hours ago
0 SL-16 DEB
1 22600U 93016J   25293.54120741  .00000087  00000-0  11001-3 0  9995
2 22600  70.9125 286.0277 0159699 195.0193 278.9710 13.82450036642531
Epoch: 2025-10-20T12:59Z
TLE epoch observation values (Epoch: 2025-10-20T12:59:20.320Z)
Latitude
61.16471°
Longitude
-156.74892°
Altitude
948.678 km
Speed
7.392 km/s
True Right ascension
04h 29m 18s
True Declination
61° 01' 23"
Sunlit
Object was in full shadow at epoch
Visualization orbit readout
Latitude
Unknown
Longitude
Unknown
Altitude
Unknown
Speed
Unknown
Apparent Right ascension
Unknown
Apparent Declination
Unknown
Sunlit
N/A
Visualization observer readout
Local Sidereal Time
15:15:09
Azimuth
Unknown
Elevation
Unknown
Doppler factor
Unknown
Orbital elements
Apogee altitude
1,070.255 km
Perigee altitude
836.094 km
Semi-major axis
7,331.311 km
Eccentricity
0.01597
Inclination
70.9125°
RAAN
286.0277°
Arg. of periapsis
195.0193°
True anomaly
277.15803°
Mean anomaly
278.971°
Eccentric anomaly
278.06504°
Mean motion
3.45757 °/min
Orbital period
104.12 mins
BSTAR
0.00011001
Loading maneuver chart data...
Computing Atmospheric mass density...
Loading historical data...
Loading historical data...
Loading historical data...
Loading historical data...
Loading historical data...
Loading historical data...
Loading historical data...

Documentation

Showing up to 5 results
|